Time,TemperatureF,DewpointF,PressureIn,WindDirection,WindDirectionDegrees,WindSpeedMPH,WindSpeedGustMPH,Humidity,HourlyPrecipIn,Conditions,Clouds,dailyrainin,SoftwareType,DateUTC
2013-03-06 00:04:00,28.8,22.1,29.63,WNW,293,1.8,2.7,76,0.00,,,0.00,WUHU216HW,2013-03-06 05:04:00,
2013-03-06 00:09:00,28.6,22.0,29.58,WNW,293,0.4,2.7,76,0.00,,,0.00,WUHU216HW,2013-03-06 05:09:00,
2013-03-06 00:14:00,28.4,21.8,29.58,WNW,293,2.2,2.2,76,0.00,,,0.00,WUHU216HW,2013-03-06 05:14:00,
2013-03-06 00:19:00,28.4,22.2,29.58,WNW,293,0.4,2.2,77,0.00,,,0.00,WUHU216HW,2013-03-06 05:19:00,
2013-03-06 00:24:00,28.3,22.0,29.58,WNW,293,1.1,1.3,77,0.00,,,0.00,WUHU216HW,2013-03-06 05:24:00,
2013-03-06 00:29:00,28.3,22.0,29.58,WNW,293,0.7,1.3,77,0.00,,,0.00,WUHU216HW,2013-03-06 05:29:00,
2013-03-06 00:34:00,28.1,21.8,29.63,WNW,293,0.2,2.5,77,0.00,,,0.00,WUHU216HW,2013-03-06 05:34:00,
2013-03-06 00:39:00,28.1,22.4,29.63,WNW,293,0.4,4.5,79,0.00,,,0.00,WUHU216HW,2013-03-06 05:39:00,
2013-03-06 00:44:00,27.9,22.2,29.62,WNW,293,0.4,4.5,79,0.00,,,0.00,WUHU216HW,2013-03-06 05:44:00,
2013-03-06 00:49:00,27.9,22.2,29.62,WNW,293,1.8,2.9,79,0.00,,,0.00,WUHU216HW,2013-03-06 05:49:00,
2013-03-06 00:54:00,27.7,22.3,29.63,WNW,293,1.1,2.9,80,0.00,,,0.00,WUHU216HW,2013-03-06 05:54:00,
2013-03-06 00:59:00,27.4,22.2,29.63,WNW,293,0.4,4.0,81,0.00,,,0.00,WUHU216HW,2013-03-06 05:59:00,
2013-03-06 01:04:00,27.0,22.5,29.62,WNW,293,0.4,4.0,83,0.00,,,0.00,WUHU216HW,2013-03-06 06:04:00,
2013-03-06 01:09:00,26.6,22.4,29.62,WNW,293,2.5,2.5,84,0.00,,,0.00,WUHU216HW,2013-03-06 06:09:00,
2013-03-06 01:14:00,26.3,22.3,29.62,WNW,293,1.8,2.5,85,0.00,,,0.00,WUHU216HW,2013-03-06 06:14:00,
2013-03-06 01:19:00,26.1,22.1,29.63,WNW,293,1.1,1.8,85,0.00,,,0.00,WUHU216HW,2013-03-06 06:19:00,
2013-03-06 01:24:00,26.1,21.6,29.61,WNW,293,1.1,5.4,83,0.00,,,0.00,WUHU216HW,2013-03-06 06:24:00,
2013-03-06 01:29:00,26.1,21.3,29.62,WNW,293,0.4,5.4,82,0.00,,,0.00,WUHU216HW,2013-03-06 06:29:00,
2013-03-06 01:34:00,26.1,21.1,29.62,WNW,293,1.1,2.9,81,0.00,,,0.00,WUHU216HW,2013-03-06 06:34:00,
2013-03-06 01:39:00,26.1,20.8,29.62,WNW,293,0.4,2.9,80,0.00,,,0.00,WUHU216HW,2013-03-06 06:39:00,
2013-03-06 01:44:00,26.1,20.8,29.62,WNW,293,2.2,2.2,80,0.00,,,0.00,WUHU216HW,2013-03-06 06:44:00,
2013-03-06 01:49:00,26.1,20.8,29.62,WNW,293,1.3,3.1,80,0.00,,,0.00,WUHU216HW,2013-03-06 06:49:00,
2013-03-06 01:54:00,25.9,20.6,29.63,WNW,293,1.3,3.1,80,0.00,,,0.00,WUHU216HW,2013-03-06 06:54:00,
2013-03-06 01:59:00,25.9,20.6,29.62,WNW,293,0.4,3.1,80,0.00,,,0.00,WUHU216HW,2013-03-06 06:59:00,
2013-03-06 02:04:00,25.7,20.4,29.62,WNW,293,0.4,3.1,80,0.00,,,0.00,WUHU216HW,2013-03-06 07:04:00,
2013-03-06 02:09:00,25.7,20.4,29.63,WNW,293,0.4,2.9,80,0.00,,,0.00,WUHU216HW,2013-03-06 07:09:00,
2013-03-06 02:14:00,25.7,20.4,29.63,WNW,293,0.7,2.0,80,0.00,,,0.00,WUHU216HW,2013-03-06 07:14:00,
2013-03-06 02:19:00,25.6,20.3,29.63,WNW,293,0.9,2.5,80,0.00,,,0.00,WUHU216HW,2013-03-06 07:19:00,
2013-03-06 02:24:00,25.6,20.3,29.63,WNW,293,1.8,2.5,80,0.00,,,0.00,WUHU216HW,2013-03-06 07:24:00,
2013-03-06 02:29:00,25.4,20.3,29.63,WNW,293,1.8,1.8,81,0.00,,,0.00,WUHU216HW,2013-03-06 07:29:00,
2013-03-06 02:34:00,25.2,20.5,29.62,WNW,293,0.7,1.8,82,0.00,,,0.00,WUHU216HW,2013-03-06 07:34:00,
2013-03-06 02:39:00,25.0,20.4,29.63,WNW,293,0.4,1.3,82,0.00,,,0.00,WUHU216HW,2013-03-06 07:39:00,
2013-03-06 02:44:00,24.8,20.7,29.61,WNW,293,0.4,1.3,84,0.00,,,0.00,WUHU216HW,2013-03-06 07:44:00,
2013-03-06 02:49:00,24.7,20.5,29.62,WNW,293,2.0,2.0,84,0.00,,,0.00,WUHU216HW,2013-03-06 07:49:00,
2013-03-06 02:54:00,24.7,20.5,29.61,WNW,293,0.4,2.0,84,0.00,,,0.00,WUHU216HW,2013-03-06 07:54:00,
2013-03-06 02:59:00,24.7,20.5,29.61,WNW,293,2.0,2.0,84,0.00,,,0.00,WUHU216HW,2013-03-06 07:59:00,
2013-03-06 03:04:00,24.5,20.3,29.62,WNW,293,1.1,2.0,84,0.00,,,0.00,WUHU216HW,2013-03-06 08:04:00,
2013-03-06 03:09:00,24.3,20.4,29.63,WNW,293,0.2,1.1,85,0.00,,,0.00,WUHU216HW,2013-03-06 08:09:00,
2013-03-06 03:14:00,24.1,20.3,29.62,WNW,293,0.2,1.3,85,0.00,,,0.00,WUHU216HW,2013-03-06 08:14:00,
2013-03-06 03:19:00,23.9,20.3,29.62,WNW,293,1.3,2.0,86,0.00,,,0.00,WUHU216HW,2013-03-06 08:19:00,
2013-03-06 03:24:00,23.6,19.7,29.62,WNW,293,0.2,2.0,85,0.00,,,0.00,WUHU216HW,2013-03-06 08:24:00,
2013-03-06 03:29:00,23.2,19.6,29.62,WNW,293,0.9,2.7,86,0.00,,,0.00,WUHU216HW,2013-03-06 08:29:00,
2013-03-06 03:34:00,23.0,19.4,29.61,WNW,293,1.1,2.7,86,0.00,,,0.00,WUHU216HW,2013-03-06 08:34:00,
2013-03-06 03:39:00,22.7,18.5,29.63,WNW,293,1.1,1.8,84,0.00,,,0.00,WUHU216HW,2013-03-06 08:39:00,
2013-03-06 03:44:00,22.7,18.3,29.62,WNW,293,0.2,1.8,83,0.00,,,0.00,WUHU216HW,2013-03-06 08:44:00,
2013-03-06 03:49:00,22.5,17.8,29.62,WNW,293,0.7,1.1,82,0.00,,,0.00,WUHU216HW,2013-03-06 08:49:00,
2013-03-06 03:54:00,22.5,17.8,29.61,WNW,293,2.7,2.7,82,0.00,,,0.00,WUHU216HW,2013-03-06 08:54:00,
2013-03-06 03:59:00,22.3,17.4,29.61,WNW,293,0.9,2.7,81,0.00,,,0.00,WUHU216HW,2013-03-06 08:59:00,
2013-03-06 04:04:00,22.1,16.9,29.59,WNW,293,1.3,2.0,80,0.00,,,0.00,WUHU216HW,2013-03-06 09:04:00,
2013-03-06 04:09:00,22.1,16.9,29.61,WNW,293,1.1,1.8,80,0.00,,,0.00,WUHU216HW,2013-03-06 09:09:00,
2013-03-06 04:14:00,22.0,16.7,29.60,WNW,293,0.7,1.8,80,0.00,,,0.00,WUHU216HW,2013-03-06 09:14:00,
2013-03-06 04:19:00,22.0,17.0,29.60,WNW,293,1.1,2.2,81,0.00,,,0.00,WUHU216HW,2013-03-06 09:19:00,
2013-03-06 04:24:00,21.8,17.1,29.60,WNW,293,2.0,2.2,82,0.00,,,0.00,WUHU216HW,2013-03-06 09:24:00,
2013-03-06 04:29:00,21.6,16.9,29.60,WNW,293,1.3,2.0,82,0.00,,,0.00,WUHU216HW,2013-03-06 09:29:00,
2013-03-06 04:34:00,21.4,16.7,29.60,WNW,293,1.3,1.6,82,0.00,,,0.00,WUHU216HW,2013-03-06 09:34:00,
2013-03-06 04:39:00,21.4,16.7,29.61,WNW,293,1.1,2.0,82,0.00,,,0.00,WUHU216HW,2013-03-06 09:39:00,
2013-03-06 04:44:00,21.4,16.2,29.61,WNW,293,2.2,2.9,80,0.00,,,0.00,WUHU216HW,2013-03-06 09:44:00,
2013-03-06 04:49:00,21.4,15.9,29.60,WNW,293,0.7,2.9,79,0.00,,,0.00,WUHU216HW,2013-03-06 09:49:00,
2013-03-06 04:54:00,21.4,16.2,29.60,WNW,293,1.1,4.0,80,0.00,,,0.00,WUHU216HW,2013-03-06 09:54:00,
2013-03-06 04:59:00,21.2,16.3,29.61,WNW,293,1.8,4.0,81,0.00,,,0.00,WUHU216HW,2013-03-06 09:59:00,
2013-03-06 05:04:00,21.2,16.3,29.61,WNW,293,1.1,2.2,81,0.00,,,0.00,WUHU216HW,2013-03-06 10:04:00,
2013-03-06 05:09:00,21.2,16.3,29.61,WNW,293,1.1,4.7,81,0.00,,,0.00,WUHU216HW,2013-03-06 10:09:00,
2013-03-06 05:14:00,21.1,16.4,29.61,WNW,293,1.3,4.7,82,0.00,,,0.00,WUHU216HW,2013-03-06 10:14:00,
2013-03-06 05:19:00,21.1,16.4,29.61,WNW,293,0.9,4.3,82,0.00,,,0.00,WUHU216HW,2013-03-06 10:19:00,
2013-03-06 05:24:00,21.1,16.4,29.61,WNW,293,0.7,2.0,82,0.00,,,0.00,WUHU216HW,2013-03-06 10:24:00,
2013-03-06 05:29:00,21.1,16.4,29.61,WNW,293,1.1,2.5,82,0.00,,,0.00,WUHU216HW,2013-03-06 10:29:00,
2013-03-06 05:34:00,21.1,16.4,29.63,WNW,293,2.2,2.5,82,0.00,,,0.00,WUHU216HW,2013-03-06 10:34:00,
2013-03-06 05:39:00,21.1,16.4,29.63,WNW,293,3.1,3.1,82,0.00,,,0.00,WUHU216HW,2013-03-06 10:39:00,
2013-03-06 05:44:00,21.1,16.4,29.63,WNW,293,1.8,3.1,82,0.00,,,0.00,WUHU216HW,2013-03-06 10:44:00,
2013-03-06 05:49:00,21.1,16.4,29.62,WNW,293,0.4,3.1,82,0.00,,,0.00,WUHU216HW,2013-03-06 10:49:00,
2013-03-06 05:54:00,21.1,16.4,29.65,WNW,293,0.7,2.5,82,0.00,,,0.00,WUHU216HW,2013-03-06 10:54:00,
2013-03-06 05:59:00,21.1,16.7,29.64,WNW,293,1.6,2.2,83,0.00,,,0.00,WUHU216HW,2013-03-06 10:59:00,
2013-03-06 06:04:00,21.1,16.7,29.64,WNW,293,1.1,2.0,83,0.00,,,0.00,WUHU216HW,2013-03-06 11:04:00,
2013-03-06 06:09:00,21.1,16.7,29.65,WNW,293,4.0,4.0,83,0.00,,,0.00,WUHU216HW,2013-03-06 11:09:00,
2013-03-06 06:14:00,21.1,16.7,29.65,WNW,293,1.8,4.0,83,0.00,,,0.00,WUHU216HW,2013-03-06 11:14:00,
2013-03-06 06:19:00,21.1,16.4,29.65,WNW,293,0.9,2.5,82,0.00,,,0.00,WUHU216HW,2013-03-06 11:19:00,
2013-03-06 06:24:00,21.1,16.4,29.65,WNW,293,1.1,2.7,82,0.00,,,0.00,WUHU216HW,2013-03-06 11:24:00,
2013-03-06 06:29:00,21.2,16.6,29.66,WNW,293,3.4,3.4,82,0.00,,,0.00,WUHU216HW,2013-03-06 11:29:00,
2013-03-06 06:34:00,21.2,16.6,29.66,WNW,293,1.6,3.4,82,0.00,,,0.00,WUHU216HW,2013-03-06 11:34:00,
2013-03-06 06:39:00,21.2,16.6,29.65,WNW,293,1.3,4.0,82,0.00,,,0.00,WUHU216HW,2013-03-06 11:39:00,
2013-03-06 06:44:00,21.2,16.6,29.65,WNW,293,2.7,4.0,82,0.00,,,0.00,WUHU216HW,2013-03-06 11:44:00,
2013-03-06 06:49:00,21.2,16.6,29.65,WNW,293,0.4,2.7,82,0.00,,,0.00,WUHU216HW,2013-03-06 11:49:00,
2013-03-06 06:54:00,21.2,16.6,29.65,WNW,293,1.8,2.9,82,0.00,,,0.00,WUHU216HW,2013-03-06 11:54:00,
2013-03-06 06:59:00,21.2,16.3,29.66,WNW,293,1.1,2.9,81,0.00,,,0.00,WUHU216HW,2013-03-06 11:59:00,
2013-03-06 07:04:00,21.2,16.3,29.66,WNW,293,0.9,2.7,81,0.00,,,0.00,WUHU216HW,2013-03-06 12:04:00,
2013-03-06 07:09:00,21.2,16.3,29.66,WNW,293,2.7,2.7,81,0.00,,,0.00,WUHU216HW,2013-03-06 12:09:00,
2013-03-06 07:14:00,21.2,16.0,29.66,WNW,293,1.1,3.4,80,0.00,,,0.00,WUHU216HW,2013-03-06 12:14:00,
2013-03-06 07:19:00,21.4,16.5,29.66,WNW,293,0.9,3.4,81,0.00,,,0.00,WUHU216HW,2013-03-06 12:19:00,
2013-03-06 07:24:00,21.4,16.5,29.66,WNW,293,1.1,2.7,81,0.00,,,0.00,WUHU216HW,2013-03-06 12:24:00,
2013-03-06 07:29:00,21.4,16.7,29.67,WNW,293,1.6,2.7,82,0.00,,,0.00,WUHU216HW,2013-03-06 12:29:00,
2013-03-06 07:34:00,21.6,16.7,29.66,WNW,293,0.4,1.8,81,0.00,,,0.00,WUHU216HW,2013-03-06 12:34:00,
2013-03-06 07:39:00,21.6,16.7,29.66,WNW,293,0.4,1.8,81,0.00,,,0.00,WUHU216HW,2013-03-06 12:39:00,
2013-03-06 07:44:00,21.6,16.7,29.66,WNW,293,2.7,2.7,81,0.00,,,0.00,WUHU216HW,2013-03-06 12:44:00,
2013-03-06 07:49:00,21.6,16.7,29.66,WNW,293,3.4,3.4,81,0.00,,,0.00,WUHU216HW,2013-03-06 12:49:00,
2013-03-06 07:54:00,21.8,17.1,29.66,WNW,293,2.5,3.4,82,0.00,,,0.00,WUHU216HW,2013-03-06 12:54:00,
2013-03-06 07:59:00,21.8,17.1,29.65,WNW,293,1.1,4.0,82,0.00,,,0.00,WUHU216HW,2013-03-06 12:59:00,
2013-03-06 08:04:00,21.8,17.4,29.65,WNW,293,1.6,4.0,83,0.00,,,0.00,WUHU216HW,2013-03-06 13:04:00,
2013-03-06 08:09:00,22.0,17.8,29.64,WNW,293,2.9,2.9,84,0.00,,,0.00,WUHU216HW,2013-03-06 13:09:00,
2013-03-06 08:14:00,22.0,17.8,29.65,WNW,293,1.6,2.9,84,0.00,,,0.00,WUHU216HW,2013-03-06 13:14:00,
2013-03-06 08:19:00,22.0,17.6,29.65,WNW,293,2.2,2.7,83,0.00,,,0.00,WUHU216HW,2013-03-06 13:19:00,
2013-03-06 08:24:00,22.0,17.3,29.65,WNW,293,4.9,4.9,82,0.00,,,0.00,WUHU216HW,2013-03-06 13:24:00,
2013-03-06 08:30:00,22.1,17.7,29.65,WNW,293,0.7,4.9,83,0.00,,,0.00,WUHU216HW,2013-03-06 13:30:00,
2013-03-06 08:35:00,22.1,17.5,29.65,WNW,293,1.6,3.4,82,0.00,,,0.00,WUHU216HW,2013-03-06 13:35:00,
2013-03-06 08:40:00,22.3,17.6,29.64,WNW,293,1.1,3.4,82,0.00,,,0.00,WUHU216HW,2013-03-06 13:40:00,
2013-03-06 08:45:00,22.5,17.8,29.64,WNW,293,1.8,2.5,82,0.00,,,0.00,WUHU216HW,2013-03-06 13:45:00,
2013-03-06 08:50:00,22.7,18.0,29.64,WNW,293,1.1,2.5,82,0.00,,,0.00,WUHU216HW,2013-03-06 13:50:00,
2013-03-06 08:55:00,22.7,18.0,29.65,WNW,293,1.3,2.9,82,0.00,,,0.00,WUHU216HW,2013-03-06 13:55:00,
2013-03-06 09:00:00,22.9,18.2,29.65,WNW,293,1.1,2.9,82,0.00,,,0.00,WUHU216HW,2013-03-06 14:00:00,
2013-03-06 09:05:00,23.0,18.4,29.65,WNW,293,0.4,2.5,82,0.00,,,0.00,WUHU216HW,2013-03-06 14:05:00,
2013-03-06 09:10:00,23.0,18.4,29.66,WNW,293,1.8,2.0,82,0.00,,,0.00,WUHU216HW,2013-03-06 14:10:00,
2013-03-06 09:15:00,23.4,18.5,29.66,WNW,293,1.6,4.7,81,0.00,,,0.00,WUHU216HW,2013-03-06 14:15:00,
2013-03-06 09:20:00,23.4,18.2,29.66,WNW,293,1.6,4.7,80,0.00,,,0.00,WUHU216HW,2013-03-06 14:20:00,
2013-03-06 09:25:00,23.8,18.3,29.66,WNW,293,2.5,2.9,79,0.00,,,0.00,WUHU216HW,2013-03-06 14:25:00,
2013-03-06 09:30:00,23.8,18.3,29.67,WNW,293,2.5,4.0,79,0.00,,,0.00,WUHU216HW,2013-03-06 14:30:00,
2013-03-06 09:35:00,24.1,18.3,29.67,WNW,293,1.8,4.0,78,0.00,,,0.00,WUHU216HW,2013-03-06 14:35:00,
2013-03-06 09:40:00,24.1,17.9,29.67,WNW,293,1.1,3.4,77,0.00,,,0.00,WUHU216HW,2013-03-06 14:40:00,
2013-03-06 09:45:00,24.3,18.1,29.68,WNW,293,1.6,3.4,77,0.00,,,0.00,WUHU216HW,2013-03-06 14:45:00,
2013-03-06 09:50:00,24.5,18.0,29.70,WNW,293,1.8,3.4,76,0.00,,,0.00,WUHU216HW,2013-03-06 14:50:00,
2013-03-06 09:55:00,24.7,18.2,29.70,WNW,293,1.3,2.5,76,0.00,,,0.00,WUHU216HW,2013-03-06 14:55:00,
2013-03-06 10:00:00,24.8,18.4,29.71,WNW,293,1.1,4.0,76,0.00,,,0.00,WUHU216HW,2013-03-06 15:00:00,
2013-03-06 10:05:00,24.8,18.4,29.71,WNW,293,4.0,4.0,76,0.00,,,0.00,WUHU216HW,2013-03-06 15:05:00,
2013-03-06 10:10:00,25.0,18.5,29.71,WNW,293,0.4,4.0,76,0.00,,,0.00,WUHU216HW,2013-03-06 15:10:00,
2013-03-06 10:15:00,25.2,18.4,29.72,WNW,293,1.1,2.9,75,0.00,,,0.00,WUHU216HW,2013-03-06 15:15:00,
2013-03-06 10:20:00,25.4,18.6,29.70,WNW,293,1.6,2.5,75,0.00,,,0.00,WUHU216HW,2013-03-06 15:20:00,
2013-03-06 10:25:00,25.7,18.8,29.72,WNW,293,0.4,2.5,75,0.00,,,0.00,WUHU216HW,2013-03-06 15:25:00,
2013-03-06 10:30:00,26.1,19.2,29.72,WNW,293,1.1,4.0,75,0.00,,,0.00,WUHU216HW,2013-03-06 15:30:00,
2013-03-06 10:35:00,26.1,19.2,29.73,WNW,293,1.1,4.0,75,0.00,,,0.00,WUHU216HW,2013-03-06 15:35:00,
2013-03-06 10:40:00,26.3,19.4,29.72,WNW,293,0.9,3.8,75,0.00,,,0.00,WUHU216HW,2013-03-06 15:40:00,
2013-03-06 10:45:00,26.6,19.7,29.73,WNW,293,1.6,3.8,75,0.00,,,0.00,WUHU216HW,2013-03-06 15:45:00,
2013-03-06 10:50:00,26.8,19.3,29.74,WNW,293,0.9,1.6,73,0.00,,,0.00,WUHU216HW,2013-03-06 15:50:00,
2013-03-06 10:55:00,27.0,19.2,29.74,WNW,293,1.3,2.9,72,0.00,,,0.00,WUHU216HW,2013-03-06 15:55:00,
2013-03-06 11:00:00,27.5,19.7,29.75,WNW,293,0.9,2.9,72,0.00,,,0.00,WUHU216HW,2013-03-06 16:00:00,
2013-03-06 11:05:00,27.9,20.1,29.74,WNW,293,0.7,2.2,72,0.00,,,0.00,WUHU216HW,2013-03-06 16:05:00,
2013-03-06 11:10:00,28.1,19.6,29.75,WNW,293,1.8,3.1,70,0.00,,,0.00,WUHU216HW,2013-03-06 16:10:00,
2013-03-06 11:15:00,27.7,19.3,29.75,WNW,293,1.8,3.1,70,0.00,,,0.00,WUHU216HW,2013-03-06 16:15:00,
2013-03-06 11:20:00,27.9,19.7,29.75,WNW,293,1.6,2.5,71,0.00,,,0.00,WUHU216HW,2013-03-06 16:20:00,
2013-03-06 11:25:00,27.7,19.5,29.72,WNW,293,1.3,2.5,71,0.00,,,0.00,WUHU216HW,2013-03-06 16:25:00,
2013-03-06 11:30:00,27.7,19.5,29.72,WNW,293,3.4,3.4,71,0.00,,,0.00,WUHU216HW,2013-03-06 16:30:00,
2013-03-06 11:35:00,27.7,19.9,29.73,WNW,293,1.3,3.4,72,0.00,,,0.00,WUHU216HW,2013-03-06 16:35:00,
2013-03-06 11:40:00,27.7,19.9,29.73,WNW,293,1.1,1.8,72,0.00,,,0.00,WUHU216HW,2013-03-06 16:40:00,
2013-03-06 11:45:00,27.7,19.9,29.72,WNW,293,1.1,2.0,72,0.00,,,0.00,WUHU216HW,2013-03-06 16:45:00,
2013-03-06 11:50:00,27.7,19.9,29.73,WNW,293,1.3,2.0,72,0.00,,,0.00,WUHU216HW,2013-03-06 16:50:00,
2013-03-06 11:55:00,27.7,19.9,29.74,WNW,293,1.1,2.0,72,0.00,,,0.00,WUHU216HW,2013-03-06 16:55:00,
2013-03-06 12:00:00,27.5,19.7,29.74,WNW,293,1.8,1.8,72,0.00,,,0.00,WUHU216HW,2013-03-06 17:00:00,
2013-03-06 12:05:00,27.5,20.0,29.74,WNW,293,0.7,1.8,73,0.00,,,0.00,WUHU216HW,2013-03-06 17:05:00,
2013-03-06 12:10:00,27.7,20.2,29.74,WNW,293,1.1,1.8,73,0.00,,,0.00,WUHU216HW,2013-03-06 17:10:00,
2013-03-06 12:15:00,27.5,20.0,29.75,WNW,293,1.8,1.8,73,0.00,,,0.00,WUHU216HW,2013-03-06 17:15:00,
2013-03-06 12:20:00,27.4,19.5,29.75,WNW,293,1.1,4.0,72,0.00,,,0.00,WUHU216HW,2013-03-06 17:20:00,
2013-03-06 12:25:00,27.2,19.4,29.75,WNW,293,0.9,4.0,72,0.00,,,0.00,WUHU216HW,2013-03-06 17:25:00,
2013-03-06 12:30:00,27.2,19.4,29.75,WNW,293,0.9,3.4,72,0.00,,,0.00,WUHU216HW,2013-03-06 17:30:00,
2013-03-06 12:35:00,27.4,19.5,29.76,WNW,293,0.4,2.5,72,0.00,,,0.00,WUHU216HW,2013-03-06 17:35:00,
2013-03-06 12:40:00,27.7,20.2,29.74,WNW,293,0.0,1.3,73,0.00,,,0.00,WUHU216HW,2013-03-06 17:40:00,
2013-03-06 12:45:00,27.7,20.2,29.76,WNW,293,1.1,1.1,73,0.00,,,0.00,WUHU216HW,2013-03-06 17:45:00,
2013-03-06 12:50:00,27.7,20.2,29.75,WNW,293,0.9,1.8,73,0.00,,,0.00,WUHU216HW,2013-03-06 17:50:00,
2013-03-06 12:55:00,27.5,19.7,29.76,WNW,293,0.4,1.8,72,0.00,,,0.00,WUHU216HW,2013-03-06 17:55:00,
2013-03-06 13:00:00,27.5,20.0,29.76,WNW,293,0.4,1.3,73,0.00,,,0.00,WUHU216HW,2013-03-06 18:00:00,
2013-03-06 13:05:00,27.5,20.0,29.77,WNW,293,0.9,3.1,73,0.00,,,0.00,WUHU216HW,2013-03-06 18:05:00,
2013-03-06 13:10:00,27.4,19.5,29.76,WNW,293,0.2,3.1,72,0.00,,,0.00,WUHU216HW,2013-03-06 18:10:00,
2013-03-06 13:15:00,27.5,20.0,29.77,WNW,293,0.9,2.5,73,0.00,,,0.00,WUHU216HW,2013-03-06 18:15:00,
2013-03-06 13:20:00,27.4,19.5,29.77,WNW,293,0.4,2.5,72,0.00,,,0.00,WUHU216HW,2013-03-06 18:20:00,
2013-03-06 13:25:00,27.4,19.5,29.76,WNW,293,1.1,1.8,72,0.00,,,0.00,WUHU216HW,2013-03-06 18:25:00,
2013-03-06 13:30:00,27.4,19.5,29.77,WNW,293,0.9,1.8,72,0.00,,,0.00,WUHU216HW,2013-03-06 18:30:00,
2013-03-06 13:35:00,27.4,19.8,29.77,WNW,293,0.4,1.1,73,0.00,,,0.00,WUHU216HW,2013-03-06 18:35:00,
2013-03-06 13:40:00,27.5,20.4,29.77,WNW,293,0.7,1.3,74,0.00,,,0.00,WUHU216HW,2013-03-06 18:40:00,
2013-03-06 13:45:00,27.4,19.8,29.77,WNW,293,0.4,1.8,73,0.00,,,0.00,WUHU216HW,2013-03-06 18:45:00,
2013-03-06 13:50:00,27.4,19.8,29.76,WNW,293,0.2,2.2,73,0.00,,,0.00,WUHU216HW,2013-03-06 18:50:00,
2013-03-06 13:55:00,27.5,20.6,29.77,WNW,293,0.7,2.2,75,0.00,,,0.00,WUHU216HW,2013-03-06 18:55:00,
2013-03-06 14:00:00,27.9,21.0,29.76,WNW,293,0.9,1.1,75,0.00,,,0.00,WUHU216HW,2013-03-06 19:00:00,
2013-03-06 14:05:00,28.3,21.1,29.76,WNW,293,0.4,2.2,74,0.00,,,0.00,WUHU216HW,2013-03-06 19:05:00,
2013-03-06 14:10:00,28.3,21.1,29.78,WNW,293,0.2,2.2,74,0.00,,,0.00,WUHU216HW,2013-03-06 19:10:00,
2013-03-06 14:15:00,28.4,21.3,29.78,WNW,293,1.1,1.8,74,0.00,,,0.00,WUHU216HW,2013-03-06 19:15:00,
2013-03-06 14:20:00,28.1,20.9,29.77,WNW,293,1.6,1.6,74,0.00,,,0.00,WUHU216HW,2013-03-06 19:20:00,
2013-03-06 14:25:00,27.7,20.5,29.77,WNW,293,1.6,2.0,74,0.00,,,0.00,WUHU216HW,2013-03-06 19:25:00,
2013-03-06 14:30:00,27.7,20.8,29.79,WNW,293,0.9,2.0,75,0.00,,,0.00,WUHU216HW,2013-03-06 19:30:00,
2013-03-06 14:35:00,27.9,21.0,29.79,WNW,293,0.4,1.1,75,0.00,,,0.00,WUHU216HW,2013-03-06 19:35:00,
2013-03-06 14:40:00,27.9,21.0,29.79,WNW,293,0.7,0.9,75,0.00,,,0.00,WUHU216HW,2013-03-06 19:40:00,
2013-03-06 14:45:00,27.9,21.0,29.79,WNW,293,0.4,1.1,75,0.00,,,0.00,WUHU216HW,2013-03-06 19:45:00,
2013-03-06 14:50:00,28.1,21.2,29.79,WNW,293,0.7,1.8,75,0.00,,,0.00,WUHU216HW,2013-03-06 19:50:00,
2013-03-06 14:55:00,27.9,21.0,29.79,WNW,293,0.4,1.8,75,0.00,,,0.00,WUHU216HW,2013-03-06 19:55:00,
2013-03-06 15:00:00,27.7,21.1,29.80,WNW,293,0.7,2.0,76,0.00,,,0.00,WUHU216HW,2013-03-06 20:00:00,
2013-03-06 15:05:00,27.9,21.2,29.79,WNW,293,0.4,2.0,76,0.00,,,0.00,WUHU216HW,2013-03-06 20:05:00,
2013-03-06 15:10:00,28.3,21.6,29.80,WNW,293,0.9,1.3,76,0.00,,,0.00,WUHU216HW,2013-03-06 20:10:00,
2013-03-06 15:15:00,28.4,21.8,29.79,WNW,293,0.0,1.3,76,0.00,,,0.00,WUHU216HW,2013-03-06 20:15:00,
2013-03-06 15:20:00,28.8,22.1,29.82,WNW,293,0.4,0.9,76,0.00,,,0.00,WUHU216HW,2013-03-06 20:20:00,
2013-03-06 15:25:00,28.8,21.9,29.84,WNW,293,1.1,2.5,75,0.00,,,0.00,WUHU216HW,2013-03-06 20:25:00,
2013-03-06 15:30:00,29.0,22.1,29.84,WNW,293,0.9,2.5,75,0.00,,,0.00,WUHU216HW,2013-03-06 20:30:00,
2013-03-06 15:35:00,29.3,22.4,29.84,WNW,293,0.9,1.3,75,0.00,,,0.00,WUHU216HW,2013-03-06 20:35:00,
2013-03-06 15:40:00,29.9,22.9,29.83,WNW,293,0.7,1.1,75,0.00,,,0.00,WUHU216HW,2013-03-06 20:40:00,
2013-03-06 15:45:00,30.2,22.9,29.84,WNW,293,1.3,2.5,74,0.00,,,0.00,WUHU216HW,2013-03-06 20:45:00,
2013-03-06 15:50:00,31.0,23.3,29.85,WNW,293,0.7,2.5,73,0.00,,,0.00,WUHU216HW,2013-03-06 20:50:00,
2013-03-06 15:55:00,31.3,23.3,29.84,WNW,293,1.3,1.8,72,0.00,,,0.00,WUHU216HW,2013-03-06 20:55:00,
2013-03-06 16:00:00,31.3,23.1,29.84,WNW,293,1.8,1.8,71,0.00,,,0.00,WUHU216HW,2013-03-06 21:00:00,
2013-03-06 16:05:00,31.1,23.1,29.85,WNW,293,1.1,2.5,72,0.00,,,0.00,WUHU216HW,2013-03-06 21:05:00,
2013-03-06 16:11:00,31.1,22.9,29.85,WNW,293,0.7,2.5,71,0.00,,,0.00,WUHU216HW,2013-03-06 21:11:00,
2013-03-06 16:16:00,31.1,22.9,29.85,WNW,293,0.4,2.0,71,0.00,,,0.00,WUHU216HW,2013-03-06 21:16:00,
2013-03-06 16:21:00,31.3,23.1,29.86,WNW,293,0.0,2.0,71,0.00,,,0.00,WUHU216HW,2013-03-06 21:21:00,
2013-03-06 16:26:00,31.3,23.3,29.85,WNW,293,0.7,1.6,72,0.00,,,0.00,WUHU216HW,2013-03-06 21:26:00,
2013-03-06 16:31:00,31.1,23.1,29.86,WNW,293,1.1,1.6,72,0.00,,,0.00,WUHU216HW,2013-03-06 21:31:00,
2013-03-06 16:36:00,31.0,23.0,29.86,WNW,293,0.2,1.1,72,0.00,,,0.00,WUHU216HW,2013-03-06 21:36:00,
2013-03-06 16:41:00,30.6,23.0,29.86,WNW,293,1.1,1.1,73,0.00,,,0.00,WUHU216HW,2013-03-06 21:41:00,
2013-03-06 16:46:00,30.6,23.0,29.86,WNW,293,0.2,1.1,73,0.00,,,0.00,WUHU216HW,2013-03-06 21:46:00,
2013-03-06 16:51:00,30.6,23.0,29.87,WNW,293,0.0,1.1,73,0.00,,,0.00,WUHU216HW,2013-03-06 21:51:00,
2013-03-06 16:56:00,30.6,23.0,29.87,WNW,293,0.7,1.1,73,0.00,,,0.00,WUHU216HW,2013-03-06 21:56:00,
2013-03-06 17:01:00,30.6,23.2,29.87,WNW,293,1.1,1.1,74,0.00,,,0.00,WUHU216HW,2013-03-06 22:01:00,
2013-03-06 17:06:00,30.6,23.2,29.88,WNW,293,1.3,1.3,74,0.00,,,0.00,WUHU216HW,2013-03-06 22:06:00,
2013-03-06 17:11:00,30.6,23.2,29.87,WNW,293,0.0,1.3,74,0.00,,,0.00,WUHU216HW,2013-03-06 22:11:00,
2013-03-06 17:16:00,30.6,23.2,29.87,WNW,293,0.2,0.4,74,0.00,,,0.00,WUHU216HW,2013-03-06 22:16:00,
2013-03-06 17:21:00,30.8,23.4,29.88,WNW,293,0.7,1.6,74,0.00,,,0.00,WUHU216HW,2013-03-06 22:21:00,
2013-03-06 17:26:00,30.8,23.1,29.88,WNW,293,1.8,1.8,73,0.00,,,0.00,WUHU216HW,2013-03-06 22:26:00,
2013-03-06 17:31:00,30.8,23.1,29.88,WNW,293,2.2,2.2,73,0.00,,,0.00,WUHU216HW,2013-03-06 22:31:00,
2013-03-06 17:36:00,30.6,23.0,29.88,WNW,293,0.2,2.7,73,0.00,,,0.00,WUHU216HW,2013-03-06 22:36:00,
2013-03-06 17:41:00,30.6,23.2,29.88,WNW,293,1.3,2.7,74,0.00,,,0.00,WUHU216HW,2013-03-06 22:41:00,
2013-03-06 17:46:00,30.6,23.0,29.89,WNW,293,0.2,1.8,73,0.00,,,0.00,WUHU216HW,2013-03-06 22:46:00,
2013-03-06 17:51:00,30.4,23.0,29.89,WNW,293,0.7,1.8,74,0.00,,,0.00,WUHU216HW,2013-03-06 22:51:00,
2013-03-06 17:56:00,30.1,22.8,29.89,WNW,293,0.2,1.6,74,0.00,,,0.00,WUHU216HW,2013-03-06 22:56:00,
2013-03-06 18:01:00,29.9,22.6,29.89,WNW,293,0.2,1.6,74,0.00,,,0.00,WUHU216HW,2013-03-06 23:01:00,
2013-03-06 18:06:00,29.9,22.9,29.90,WNW,293,0.7,0.9,75,0.00,,,0.00,WUHU216HW,2013-03-06 23:06:00,
2013-03-06 18:11:00,29.5,22.5,29.89,WNW,293,1.1,1.1,75,0.00,,,0.00,WUHU216HW,2013-03-06 23:11:00,
2013-03-06 18:16:00,29.3,22.4,29.90,WNW,293,0.0,1.1,75,0.00,,,0.00,WUHU216HW,2013-03-06 23:16:00,
2013-03-06 18:21:00,29.2,22.5,29.91,WNW,293,0.4,1.6,76,0.00,,,0.00,WUHU216HW,2013-03-06 23:21:00,
2013-03-06 18:26:00,29.2,22.5,29.90,WNW,293,0.0,1.6,76,0.00,,,0.00,WUHU216HW,2013-03-06 23:26:00,
2013-03-06 18:31:00,29.2,22.2,29.91,WNW,293,0.0,0.7,75,0.00,,,0.00,WUHU216HW,2013-03-06 23:31:00,
2013-03-06 18:36:00,28.8,21.9,29.92,WNW,293,0.4,0.7,75,0.00,,,0.00,WUHU216HW,2013-03-06 23:36:00,
2013-03-06 18:41:00,28.8,21.9,29.91,WNW,293,0.0,0.4,75,0.00,,,0.00,WUHU216HW,2013-03-06 23:41:00,
2013-03-06 18:46:00,28.6,22.0,29.92,WNW,293,1.1,1.1,76,0.00,,,0.00,WUHU216HW,2013-03-06 23:46:00,
2013-03-06 18:51:00,28.4,21.8,29.93,WNW,293,0.0,1.1,76,0.00,,,0.00,WUHU216HW,2013-03-06 23:51:00,
2013-03-06 18:56:00,28.3,22.0,29.92,WNW,293,0.9,0.9,77,0.00,,,0.00,WUHU216HW,2013-03-06 23:56:00,
2013-03-06 19:01:00,28.1,21.4,29.92,WNW,293,0.0,0.9,76,0.00,,,0.00,WUHU216HW,2013-03-07 00:01:00,
2013-03-06 19:06:00,27.9,21.6,29.91,WNW,293,0.0,1.6,77,0.00,,,0.00,WUHU216HW,2013-03-07 00:06:00,
2013-03-06 19:11:00,27.7,21.4,29.92,WNW,293,0.4,1.6,77,0.00,,,0.00,WUHU216HW,2013-03-07 00:11:00,
2013-03-06 19:16:00,27.7,21.7,29.93,WNW,293,0.2,0.7,78,0.00,,,0.00,WUHU216HW,2013-03-07 00:16:00,
2013-03-06 19:21:00,27.7,21.7,29.92,WNW,293,0.0,0.7,78,0.00,,,0.00,WUHU216HW,2013-03-07 00:21:00,
2013-03-06 19:26:00,27.7,21.7,29.94,WNW,293,0.4,0.4,78,0.00,,,0.00,WUHU216HW,2013-03-07 00:26:00,
2013-03-06 19:31:00,27.5,21.5,29.93,WNW,293,0.2,1.1,78,0.00,,,0.00,WUHU216HW,2013-03-07 00:31:00,
2013-03-06 19:36:00,27.4,21.3,29.94,WNW,293,0.2,1.1,78,0.00,,,0.00,WUHU216HW,2013-03-07 00:36:00,
2013-03-06 19:41:00,27.4,21.7,29.94,WNW,293,0.2,1.1,79,0.00,,,0.00,WUHU216HW,2013-03-07 00:41:00,
2013-03-06 19:46:00,27.2,21.5,29.94,WNW,293,0.2,1.3,79,0.00,,,0.00,WUHU216HW,2013-03-07 00:46:00,
2013-03-06 19:51:00,27.2,21.5,29.93,WNW,293,0.7,1.3,79,0.00,,,0.00,WUHU216HW,2013-03-07 00:51:00,
2013-03-06 19:56:00,27.2,21.5,29.93,WNW,293,0.4,1.1,79,0.00,,,0.00,WUHU216HW,2013-03-07 00:56:00,
2013-03-06 20:01:00,27.0,21.3,29.93,WNW,293,0.4,1.1,79,0.00,,,0.00,WUHU216HW,2013-03-07 01:01:00,
2013-03-06 20:06:00,27.0,21.3,29.93,WNW,293,1.1,2.0,79,0.00,,,0.00,WUHU216HW,2013-03-07 01:06:00,
2013-03-06 20:11:00,27.0,21.6,29.93,WNW,293,1.3,2.0,80,0.00,,,0.00,WUHU216HW,2013-03-07 01:11:00,
2013-03-06 20:16:00,26.8,21.4,29.92,WNW,293,0.7,1.3,80,0.00,,,0.00,WUHU216HW,2013-03-07 01:16:00,
2013-03-06 20:21:00,26.6,21.2,29.92,WNW,293,0.4,0.7,80,0.00,,,0.00,WUHU216HW,2013-03-07 01:21:00,
2013-03-06 20:26:00,26.6,21.2,29.94,WNW,293,1.3,1.3,80,0.00,,,0.00,WUHU216HW,2013-03-07 01:26:00,
2013-03-06 20:31:00,26.5,21.3,29.93,WNW,293,0.9,1.3,81,0.00,,,0.00,WUHU216HW,2013-03-07 01:31:00,
2013-03-06 20:36:00,26.5,21.3,29.93,WNW,293,1.8,1.8,81,0.00,,,0.00,WUHU216HW,2013-03-07 01:36:00,
2013-03-06 20:41:00,26.3,21.3,29.93,WNW,293,0.2,2.0,81,0.00,,,0.00,WUHU216HW,2013-03-07 01:41:00,
2013-03-06 20:46:00,26.3,21.3,29.93,WNW,293,0.2,2.0,81,0.00,,,0.00,WUHU216HW,2013-03-07 01:46:00,
2013-03-06 20:51:00,26.3,21.5,29.94,WNW,293,0.4,1.1,82,0.00,,,0.00,WUHU216HW,2013-03-07 01:51:00,
2013-03-06 20:56:00,26.1,21.3,29.94,WNW,293,0.4,1.1,82,0.00,,,0.00,WUHU216HW,2013-03-07 01:56:00,
2013-03-06 21:01:00,26.1,21.1,29.94,WNW,293,0.4,2.5,81,0.00,,,0.00,WUHU216HW,2013-03-07 02:01:00,
2013-03-06 21:06:00,26.1,21.1,29.94,WNW,293,0.4,2.5,81,0.00,,,0.00,WUHU216HW,2013-03-07 02:06:00,
2013-03-06 21:11:00,25.9,20.9,29.89,WNW,293,0.4,1.1,81,0.00,,,0.00,WUHU216HW,2013-03-07 02:11:00,
2013-03-06 21:16:00,25.9,21.2,29.90,WNW,293,0.9,1.1,82,0.00,,,0.00,WUHU216HW,2013-03-07 02:16:00,
2013-03-06 21:21:00,25.9,21.2,29.90,WNW,293,0.4,1.1,82,0.00,,,0.00,WUHU216HW,2013-03-07 02:21:00,
2013-03-06 21:26:00,25.9,21.2,29.91,WNW,293,0.4,0.9,82,0.00,,,0.00,WUHU216HW,2013-03-07 02:26:00,
2013-03-06 21:31:00,25.7,21.0,29.90,WNW,293,1.1,1.1,82,0.00,,,0.00,WUHU216HW,2013-03-07 02:31:00,
2013-03-06 21:36:00,25.7,21.0,29.91,WNW,293,0.4,1.1,82,0.00,,,0.00,WUHU216HW,2013-03-07 02:36:00,
2013-03-06 21:41:00,25.7,21.0,29.90,WNW,293,0.4,1.6,82,0.00,,,0.00,WUHU216HW,2013-03-07 02:41:00,
2013-03-06 21:46:00,25.6,20.8,29.91,WNW,293,0.7,1.6,82,0.00,,,0.00,WUHU216HW,2013-03-07 02:46:00,
2013-03-06 21:51:00,25.6,20.8,29.91,WNW,293,0.7,1.6,82,0.00,,,0.00,WUHU216HW,2013-03-07 02:51:00,
2013-03-06 21:56:00,25.6,20.8,29.92,WNW,293,0.4,1.6,82,0.00,,,0.00,WUHU216HW,2013-03-07 02:56:00,
2013-03-06 22:01:00,25.6,20.8,29.91,WNW,293,1.1,1.1,82,0.00,,,0.00,WUHU216HW,2013-03-07 03:01:00,
2013-03-06 22:06:00,25.6,20.8,29.91,WNW,293,0.2,1.1,82,0.00,,,0.00,WUHU216HW,2013-03-07 03:06:00,
2013-03-06 22:11:00,25.6,20.8,29.92,WNW,293,1.1,1.3,82,0.00,,,0.00,WUHU216HW,2013-03-07 03:11:00,
2013-03-06 22:16:00,25.6,20.8,29.90,WNW,293,0.4,1.3,82,0.00,,,0.00,WUHU216HW,2013-03-07 03:16:00,
2013-03-06 22:21:00,25.6,20.8,29.92,WNW,293,1.3,2.5,82,0.00,,,0.00,WUHU216HW,2013-03-07 03:21:00,
2013-03-06 22:26:00,25.6,20.8,29.91,WNW,293,0.4,2.5,82,0.00,,,0.00,WUHU216HW,2013-03-07 03:26:00,
2013-03-06 22:31:00,25.4,20.7,29.93,WNW,293,0.4,1.3,82,0.00,,,0.00,WUHU216HW,2013-03-07 03:31:00,
2013-03-06 22:36:00,25.4,20.7,29.97,WNW,293,0.7,1.3,82,0.00,,,0.00,WUHU216HW,2013-03-07 03:36:00,
2013-03-06 22:41:00,25.4,20.7,29.95,WNW,293,0.7,0.9,82,0.00,,,0.00,WUHU216HW,2013-03-07 03:41:00,
2013-03-06 22:46:00,25.2,20.8,29.97,WNW,293,0.4,0.9,83,0.00,,,0.00,WUHU216HW,2013-03-07 03:46:00,
2013-03-06 22:51:00,25.2,20.5,29.97,WNW,293,0.9,0.9,82,0.00,,,0.00,WUHU216HW,2013-03-07 03:51:00,
2013-03-06 22:56:00,25.4,20.7,29.96,WNW,293,0.4,1.8,82,0.00,,,0.00,WUHU216HW,2013-03-07 03:56:00,
2013-03-06 23:01:00,25.2,20.8,29.96,WNW,293,0.9,1.8,83,0.00,,,0.00,WUHU216HW,2013-03-07 04:01:00,
2013-03-06 23:06:00,25.2,20.5,29.96,WNW,293,0.4,1.8,82,0.00,,,0.00,WUHU216HW,2013-03-07 04:06:00,
2013-03-06 23:11:00,25.2,20.8,29.96,WNW,293,0.7,1.8,83,0.00,,,0.00,WUHU216HW,2013-03-07 04:11:00,
2013-03-06 23:16:00,25.2,20.5,29.96,WNW,293,0.7,1.1,82,0.00,,,0.00,WUHU216HW,2013-03-07 04:16:00,
2013-03-06 23:21:00,25.0,20.6,29.95,WNW,293,0.9,2.2,83,0.00,,,0.00,WUHU216HW,2013-03-07 04:21:00,
2013-03-06 23:26:00,25.0,20.6,29.94,WNW,293,2.2,2.2,83,0.00,,,0.00,WUHU216HW,2013-03-07 04:26:00,
2013-03-06 23:31:00,25.2,20.8,29.95,WNW,293,0.4,2.2,83,0.00,,,0.00,WUHU216HW,2013-03-07 04:31:00,
2013-03-06 23:36:00,25.0,20.6,29.96,WNW,293,0.4,1.3,83,0.00,,,0.00,WUHU216HW,2013-03-07 04:36:00,
2013-03-06 23:41:00,25.0,20.6,29.95,WNW,293,0.7,1.3,83,0.00,,,0.00,WUHU216HW,2013-03-07 04:41:00,
2013-03-06 23:46:00,25.0,20.4,29.95,WNW,293,0.4,1.1,82,0.00,,,0.00,WUHU216HW,2013-03-07 04:46:00,
2013-03-06 23:51:00,25.0,20.4,29.95,WNW,293,1.1,1.1,82,0.00,,,0.00,WUHU216HW,2013-03-07 04:51:00,
2013-03-06 23:56:00,25.2,20.5,29.96,WNW,293,0.7,1.1,82,0.00,,,0.00,WUHU216HW,2013-03-07 04:56:00,